• In Uzbekistan
  • List of Countries
  • For 7 days
  • Water Temperature
  • Satellite Maps
  • Weather Map
  • Weather Widgets
  • user-avatar
    Login

    Hourly Weather Changchun

    Today, 18 November, Sunday

    Time Temperature Precipitation Wind Pressure Humidity
    00:00 -4°C° 0 mm 2 mps 745 mmHg 49%
    01:00 -4°C° 0 mm 2 mps 745 mmHg 50%
    02:00 -5°C° 0 mm 2 mps 745 mmHg 52%
    03:00 -5°C° 0 mm 2 mps 745 mmHg 53%
    04:00 -3°C° 0 mm 1 mps 745 mmHg 55%
    05:00 -3°C° 0 mm 1 mps 745 mmHg 56%
    06:00 -2°C° 0 mm 1 mps 745 mmHg 56%
    07:00 -2°C° 0 mm 1 mps 745 mmHg 56%
    08:00 -1°C° 0 mm 1 mps 744 mmHg 58%
    09:00 -2°C° 0 mm 2 mps 744 mmHg 55%
    10:00 -1°C° 0 mm 2 mps 744 mmHg 51%
    11:00 +1°C° 0 mm 2 mps 744 mmHg 48%
    12:00 +2°C° 0 mm 2 mps 744 mmHg 47%
    13:00 +2°C° 0 mm 2 mps 743 mmHg 45%
    14:00 +3°C° 0 mm 2 mps 743 mmHg 44%
    15:00 +1°C° 0 mm 2 mps 743 mmHg 48%
    16:00 -1°C° 0 mm 2 mps 743 mmHg 52%
    17:00 0°C° 0 mm 1 mps 743 mmHg 55%
    18:00 -3°C° 0 mm 2 mps 743 mmHg 56%
    19:00 -3°C° 0 mm 2 mps 744 mmHg 56%
    20:00 -4°C° 0 mm 2 mps 744 mmHg 59%
    21:00 -4°C° 0 mm 2 mps 744 mmHg 57%
    22:00 -4°C° 0 mm 2 mps 744 mmHg 56%
    23:00 -4°C° 0 mm 2 mps 745 mmHg 54%

    Tomorrow, 19 November, Monday

    Time Temperature Precipitation Wind Pressure Humidity
    00:00 -5°C° 0 mm 2 mps 745 mmHg 54%
    01:00 -5°C° 0 mm 2 mps 746 mmHg 54%
    02:00 -5°C° 0 mm 2 mps 746 mmHg 54%
    03:00 -5°C° 0 mm 2 mps 746 mmHg 54%
    04:00 -6°C° 0 mm 2 mps 747 mmHg 55%
    05:00 -6°C° 0 mm 2 mps 747 mmHg 55%
    06:00 -4°C° 0 mm 1 mps 747 mmHg 54%
    07:00 -4°C° 0 mm 1 mps 748 mmHg 52%
    08:00 -3°C° 0 mm 1 mps 748 mmHg 51%
    09:00 -2°C° 0 mm 1 mps 748 mmHg 47%
    10:00 -2°C° 0 mm 1 mps 748 mmHg 43%
    11:00 -1°C° 0 mm 1 mps 748 mmHg 40%
    12:00 0°C° 0 mm 1 mps 748 mmHg 38%
    13:00 -2°C° 0 mm 2 mps 748 mmHg 36%
    14:00 -1°C° 0 mm 2 mps 747 mmHg 34%
    15:00 -2°C° 0 mm 2 mps 747 mmHg 38%
    16:00 -1°C° 0 mm 1 mps 747 mmHg 41%
    17:00 -2°C° 0 mm 1 mps 748 mmHg 44%
    18:00 -2°C° 0 mm 1 mps 747 mmHg 46%
    19:00 -2°C° 0 mm 1 mps 747 mmHg 47%
    20:00 -2°C° 0 mm 1 mps 747 mmHg 48%
    21:00 -3°C° 0 mm 1 mps 747 mmHg 48%
    22:00 -3°C° 0 mm 1 mps 747 mmHg 49%
    23:00 -5°C° 0 mm 2 mps 747 mmHg 50%

    Day after tomorrow, 20 November, Tuesday

    Time Temperature Precipitation Wind Pressure Humidity
    00:00 -5°C° 0 mm 2 mps 747 mmHg 50%
    01:00 -3°C° 0 mm 1 mps 746 mmHg 51%
    02:00 -2°C° 0 mm 1 mps 746 mmHg 51%
    03:00 -2°C° 0.1 mm 1 mps 746 mmHg 56%
    04:00 -2°C° 0.1 mm 1 mps 746 mmHg 61%
    05:00 -2°C° 0.1 mm 1 mps 745 mmHg 66%
    06:00 -2°C° 0.4 mm 1 mps 745 mmHg 71%
    07:00 -5°C° 0.4 mm 2 mps 746 mmHg 77%
    08:00 -5°C° 0.4 mm 2 mps 746 mmHg 82%
    09:00 -6°C° 0.2 mm 3 mps 746 mmHg 76%
    10:00 -7°C° 0.2 mm 4 mps 746 mmHg 70%
    11:00 -7°C° 0.2 mm 4 mps 747 mmHg 64%
    12:00 -7°C° 0.1 mm 4 mps 747 mmHg 57%
    13:00 -7°C° 0.1 mm 4 mps 747 mmHg 49%
    14:00 -7°C° 0.1 mm 4 mps 747 mmHg 42%
    15:00 -7°C° 0 mm 4 mps 747 mmHg 43%
    16:00 -7°C° 0 mm 3 mps 748 mmHg 44%
    17:00 -8°C° 0 mm 3 mps 748 mmHg 45%
    18:00 -8°C° 0 mm 2 mps 749 mmHg 46%
    19:00 -8°C° 0 mm 2 mps 749 mmHg 46%
    20:00 -9°C° 0 mm 2 mps 750 mmHg 47%
    21:00 -9°C° 0 mm 2 mps 750 mmHg 47%
    22:00 -8°C° 0 mm 1 mps 750 mmHg 47%
    23:00 -8°C° 0 mm 1 mps 750 mmHg 47%

    21 November, Wednesday

    Time Temperature Precipitation Wind Pressure Humidity
    00:00 -9°C° 0 mm 2 mps 750 mmHg 49%
    01:00 -10°C° 0 mm 2 mps 750 mmHg 51%
    02:00 -10°C° 0 mm 2 mps 750 mmHg 53%
    03:00 -12°C° 0 mm 3 mps 750 mmHg 55%
    04:00 -12°C° 0 mm 3 mps 750 mmHg 57%
    05:00 -12°C° 0 mm 3 mps 750 mmHg 59%
    06:00 -12°C° 0 mm 3 mps 750 mmHg 58%
    07:00 -12°C° 0 mm 3 mps 750 mmHg 57%
    08:00 -11°C° 0 mm 4 mps 750 mmHg 56%
    09:00 -10°C° 0 mm 4 mps 749 mmHg 51%
    10:00 -10°C° 0 mm 5 mps 749 mmHg 46%
    11:00 -7°C° 0 mm 5 mps 749 mmHg 41%
    12:00 -7°C° 0 mm 5 mps 748 mmHg 41%
    13:00 -7°C° 0 mm 5 mps 747 mmHg 40%
    14:00 -6°C° 0 mm 5 mps 747 mmHg 40%
    15:00 -7°C° 0 mm 4 mps 746 mmHg 45%
    16:00 -8°C° 0 mm 4 mps 746 mmHg 49%
    17:00 -8°C° 0 mm 3 mps 746 mmHg 53%
    18:00 -9°C° 0 mm 4 mps 745 mmHg 52%
    19:00 -9°C° 0 mm 4 mps 745 mmHg 51%
    20:00 -9°C° 0 mm 4 mps 745 mmHg 50%
    21:00 -10°C° 0 mm 5 mps 745 mmHg 51%
    22:00 -10°C° 0 mm 5 mps 745 mmHg 52%
    23:00 -10°C° 0 mm 5 mps 744 mmHg 52%

    22 November, Thursday

    Time Temperature Precipitation Wind Pressure Humidity
    00:00 -10°C° 0 mm 5 mps 744 mmHg 52%
    01:00 -10°C° 0 mm 4 mps 744 mmHg 52%
    02:00 -10°C° 0 mm 4 mps 744 mmHg 53%
    03:00 -10°C° 0 mm 4 mps 745 mmHg 51%
    04:00 -11°C° 0 mm 4 mps 745 mmHg 50%
    05:00 -11°C° 0 mm 4 mps 745 mmHg 49%
    06:00 -12°C° 0 mm 5 mps 746 mmHg 47%
    07:00 -12°C° 0 mm 5 mps 746 mmHg 44%
    08:00 -12°C° 0 mm 6 mps 747 mmHg 41%
    09:00 -12°C° 0 mm 6 mps 748 mmHg 42%
    10:00 -11°C° 0 mm 6 mps 748 mmHg 42%
    11:00 -12°C° 0 mm 7 mps 749 mmHg 43%
    12:00 -11°C° 0 mm 6 mps 749 mmHg 41%
    13:00 -11°C° 0 mm 6 mps 749 mmHg 40%
    14:00 -11°C° 0 mm 5 mps 749 mmHg 39%
    15:00 -10°C° 0 mm 4 mps 750 mmHg 39%
    16:00 -11°C° 0 mm 4 mps 750 mmHg 39%
    17:00 -12°C° 0 mm 3 mps 751 mmHg 39%
    18:00 -10°C° 0 mm 2 mps 751 mmHg 41%
    19:00 -10°C° 0 mm 2 mps 751 mmHg 42%
    20:00 -10°C° 0 mm 1 mps 751 mmHg 44%
    21:00 -12°C° 0 mm 2 mps 751 mmHg 46%
    22:00 -12°C° 0 mm 2 mps 751 mmHg 48%
    23:00 -12°C° 0 mm 2 mps 751 mmHg 50%

    23 November, Friday

    Time Temperature Precipitation Wind Pressure Humidity
    00:00 -12°C° 0 mm 2 mps 751 mmHg 53%
    01:00 -12°C° 0 mm 2 mps 750 mmHg 55%
    02:00 -13°C° 0 mm 3 mps 750 mmHg 58%
    03:00 -13°C° 0 mm 3 mps 750 mmHg 58%
    04:00 -14°C° 0 mm 3 mps 750 mmHg 58%
    05:00 -14°C° 0 mm 3 mps 750 mmHg 59%
    06:00 -13°C° 0 mm 3 mps 750 mmHg 55%
    07:00 -14°C° 0 mm 4 mps 750 mmHg 52%
    08:00 -12°C° 0 mm 4 mps 750 mmHg 49%
    09:00 -11°C° 0 mm 4 mps 750 mmHg 43%
    10:00 -9°C° 0 mm 4 mps 750 mmHg 38%
    11:00 -8°C° 0 mm 4 mps 750 mmHg 33%
    12:00 -7°C° 0 mm 4 mps 749 mmHg 32%
    13:00 -6°C° 0 mm 3 mps 749 mmHg 31%
    14:00 -5°C° 0 mm 3 mps 748 mmHg 30%
    15:00 -6°C° 0 mm 3 mps 748 mmHg 35%
    16:00 -6°C° 0 mm 2 mps 748 mmHg 40%
    17:00 -7°C° 0 mm 2 mps 748 mmHg 44%
    18:00 -7°C° 0 mm 2 mps 748 mmHg 45%
    19:00 -7°C° 0 mm 2 mps 748 mmHg 46%
    20:00 -8°C° 0 mm 2 mps 748 mmHg 47%
    21:00 -8°C° 0 mm 2 mps 748 mmHg 48%
    22:00 -8°C° 0 mm 2 mps 748 mmHg 48%
    23:00 -8°C° 0 mm 2 mps 747 mmHg 49%
    Show more